Flag for Germany Weather past 2 weeks in Offenburg, Baden-Württemberg, Germany

57 °F


Feels Like: 56 °F
Forecast: 50 / 69 °F
Wind: 6 mph from South

Location: Lahr

Current Time: Oct 4, 2015 at 10:34:05 AM

Latest Report: Oct 4, 2015 at 10:00 AM

Visibility: 28 mi

Pressure: 30.10 "Hg

Humidity: 84%

Dew point: 53 °F

Location of OffenburgLocation

Historic Weather in Offenburg — Graph


Offenburg temperature yesterday

Maximum temperature yesterday: 72 °F (at 5:00 PM)
Minimum temperature yesterday: 44 °F (at 6:00 AM)
Average temperature yesterday: 58 °F

Past Weeks' High & Low Weather Summary

High72 °F (Oct 3, 5:00 PM)99% (Sep 21, 3:00 AM)30.51 "Hg (Sep 21, 3:00 AM)
Low37 °F (Oct 2, 8:00 AM)33% (Sep 29, 4:00 PM)29.66 "Hg (Sep 22, 6:00 PM)
Average56 °F73%30.18 "Hg
* Reported Sep 19 9:00 AM — Oct 4 9:00 AM, Offenburg, Weather by CustomWeather, © 2015

Note: Actual official high and low records may vary slightly from our data, if they occured in-between our weather recording intervals... More about our weather records


Offenburg weather history for previous 24 hours

Time TempWeatherWind HumidityBarometerVisibility
9:00 AM
Sun, Oct 4
55 °FOvercast.5 mph92%30.09 "Hg22 mi
8:00 AM55 °FLight rain. Overcast.2 mph94%30.08 "Hg19 mi
7:00 AM55 °FLight rain. Overcast.5 mph94%30.08 "Hg8 mi
6:00 AM56 °FLight rain. Low clouds.5 mph99%30.07 "Hg6 mi
5:00 AM56 °FRain. Low clouds.3 mph99%30.06 "Hg1 mi
4:00 AM56 °FLight rain. Overcast.2 mph95%30.03 "Hg3 mi
3:00 AM56 °FLight rain. Overcast.2 mph92%30.02 "Hg6 mi
2:00 AM56 °FLight rain. Overcast.3 mph85%30.01 "Hg11 mi
1:00 AM55 °FLight rain. Overcast.1 mph89%29.99 "Hg16 mi
11:00 PM
Sat, Oct 3
54 °FPassing clouds.2 mph88%29.98 "Hg17 mi
10:00 PM54 °FPassing clouds.1 mph84%29.96 "Hg18 mi
9:00 PM55 °FOvercast.1 mph81%29.96 "Hg22 mi
8:00 PM59 °FPassing clouds.1 mph71%29.95 "Hg25 mi
7:00 PM64 °FScattered clouds.1 mph61%29.96 "Hg31 mi
6:00 PM71 °FScattered clouds.1 mph47%29.94 "Hg28 mi
5:00 PM72 °FScattered clouds.2 mph44%29.95 "Hg34 mi
4:00 PM71 °FPartly sunny.3 mph42%29.97 "Hg31 mi
3:00 PM71 °FScattered clouds.3 mph43%29.98 "Hg19 mi
2:00 PM69 °FPassing clouds.2 mph49%29.99 "Hg19 mi
1:00 PM67 °FPassing clouds.3 mph51%30.02 "Hg19 mi
12:00 PM64 °FPassing clouds.5 mph57%30.05 "Hg18 mi
11:00 AM61 °FPartly sunny.5 mph64%30.06 "Hg18 mi
10:00 AM58 °FOvercast.5 mph73%30.07 "Hg12 mi
Weather by CustomWeather, © 2015

See weather overviewHow to use our weather pages